Ellsworth AFB, SD

11:39 PM MST on February 20, 2017 (GMT -0700)
Ellsworth Air Force Base

Weather History for KRCA - August, 2013

Change the Weather History Date:

Saturday, August 3, 2013

  Actual Average Record
Temperature  
Mean Temperature 70 °F -  
Max Temperature 81 °F 85 °F 104 °F (2001)
Min Temperature 59 °F 59 °F 55 °F (2005)
Cooling Degree Days 4    
Growing Degree Days 20 (Base 50)    
Moisture  
Dew Point 60 °F    
Average Humidity 84    
Maximum Humidity 100    
Minimum Humidity 51    
Precipitation  
Precipitation 0.13 in - - ()
Sea Level Pressure  
Sea Level Pressure 30.10 in    
Wind  
Wind Speed 8 mph (ESE)    
Max Wind Speed 18 mph    
Max Gust Speed 23 mph    
Visibility 10 miles    
Events Rain , Thunderstorm    
Averages and records for this station are not official NWS values.
T = Trace of Precipitation, MM = Missing Value Source: NWS Daily Summary

Daily Weather History Graph

Daily Weather History Graph

Search for Another Location

Airport or City:

Trip Planner

Search our weather history database for the weather conditions in past years. The results will help you decide how hot, cold, wet, or windy it might be!

Date:

Astronomy

Aug. 03, 2013 Rise Set
Actual Time 5:42 AM MDT 8:13 PM MDT
Civil Twilight 5:09 AM MDT 8:46 PM MDT
Nautical Twilight 4:28 AM MDT 9:27 PM MDT
Astronomical Twilight 3:42 AM MDT 10:13 PM MDT
Moon 2:52 AM MDT (8/3) 5:58 PM MDT (8/3)
Length of Visible Light 15h 36m
Length of Day
14h 31m
Waning Crescent, 9% of the Moon is Illuminated
Aug 3
Waning Crescent
Aug 6
New
Aug 14
First Quarter
Aug 20
Full
Aug 28
Last Quarter

Hourly Weather History & Observations

Time (MDT) Temp. Heat Index Dew Point Humidity Pressure Visibility Wind Dir Wind Speed Gust Speed Precip Events Conditions
12:28 AM 62.6 °F - 57.2 °F 82% 30.12 in 10.0 mi East 3.5 mph - N/A   Overcast
12:58 AM 62.4 °F - 57.6 °F 84% 30.07 in 10.0 mi SE 8.1 mph - N/A   Overcast
1:00 AM 62.6 °F - 57.2 °F 82% 30.12 in 10.0 mi SSE 3.5 mph - N/A Rain Light Rain
1:16 AM 60.8 °F - 59.0 °F 94% 30.11 in 10.0 mi ESE 8.1 mph - N/A Rain , Thunderstorm Light Thunderstorms and Rain
1:31 AM 60.8 °F - 59.0 °F 94% 30.11 in 10.0 mi ENE 8.1 mph - N/A Rain Light Rain
1:56 AM 60.8 °F - 59.0 °F 94% 30.12 in 10.0 mi NE 8.1 mph - N/A Rain , Thunderstorm Light Rain
1:58 AM 61.0 °F - 59.0 °F 93% 30.08 in 10.0 mi ENE 6.9 mph - 0.02 in Thunderstorm Light Drizzle
2:10 AM 60.8 °F - 59.0 °F 94% 30.10 in 10.0 mi ESE 8.1 mph - N/A Thunderstorm Light Drizzle
2:15 AM 60.8 °F - 59.0 °F 94% 30.09 in 10.0 mi East 8.1 mph - N/A Thunderstorm Light Drizzle
2:20 AM 60.8 °F - 59.0 °F 94% 30.10 in 10.0 mi SE 6.9 mph - N/A   Light Drizzle
2:23 AM 60.8 °F - 59.0 °F 94% 30.10 in 10.0 mi ESE 5.8 mph - N/A   Mostly Cloudy
2:28 AM 60.8 °F - 59.0 °F 94% 30.09 in 10.0 mi East 5.8 mph - N/A   Overcast
2:36 AM 60.8 °F - 59.0 °F 94% 30.10 in 10.0 mi ENE 8.1 mph - N/A   Light Drizzle
2:44 AM 60.8 °F - 59.0 °F 94% 30.10 in 10.0 mi NE 8.1 mph - N/A   Overcast
2:58 AM 60.6 °F - 58.6 °F 93% 30.06 in 10.0 mi ENE 5.8 mph - 0.00 in   Overcast
3:16 AM 60.8 °F - 59.0 °F 94% 30.13 in 10.0 mi North 8.1 mph - N/A Rain Light Rain
3:58 AM 60.4 °F - 59.2 °F 96% 30.04 in 8.0 mi East 8.1 mph - 0.04 in Rain Light Rain
4:08 AM 60.8 °F - 59.0 °F 94% 30.08 in 8.0 mi ESE 8.1 mph - N/A Rain Light Rain
4:12 AM 60.8 °F - 59.0 °F 94% 30.13 in 9.0 mi NW 12.7 mph - N/A Rain Light Rain
4:22 AM 60.8 °F - 59.0 °F 94% 30.14 in 10.0 mi NW 10.4 mph - N/A Rain Light Rain
4:27 AM 60.8 °F - 59.0 °F 94% 30.13 in 10.0 mi Calm Calm - N/A Rain Light Rain
4:32 AM 59.0 °F - 59.0 °F 100% 30.12 in 10.0 mi SSE 5.8 mph - N/A Rain Light Rain
4:43 AM 60.8 °F - 59.0 °F 94% 30.09 in 10.0 mi ESE 8.1 mph - N/A   Mostly Cloudy
4:49 AM 60.8 °F - 59.0 °F 94% 30.08 in 10.0 mi ESE 8.1 mph - N/A Rain Light Rain
4:58 AM 59.9 °F - 59.0 °F 97% 30.03 in 7.0 mi SSE 12.7 mph - 0.04 in Rain Light Rain
5:13 AM 59.0 °F - 59.0 °F 100% 30.06 in 5.0 mi SE 12.7 mph - N/A Rain Light Rain
5:25 AM 59.0 °F - 59.0 °F 100% 30.12 in 9.0 mi NNW 1.2 mph - N/A   Overcast
5:30 AM 59.0 °F - 59.0 °F 100% 30.13 in 10.0 mi Calm Calm - N/A   Overcast
5:58 AM 60.3 °F - 59.4 °F 97% 30.09 in 10.0 mi Calm Calm - 0.02 in   Overcast
6:06 AM 60.8 °F - 59.0 °F 94% 30.14 in 10.0 mi North 4.6 mph - N/A Rain Light Rain
6:17 AM 60.8 °F - 59.0 °F 94% 30.13 in 10.0 mi NNE 5.8 mph - N/A   Overcast
6:58 AM 59.9 °F - 59.4 °F 98% 30.12 in 9.0 mi East 5.8 mph - 0.00 in   Overcast
7:18 AM 60.8 °F - 59.0 °F 94% 30.15 in 7.0 mi East 5.8 mph - N/A   Overcast
7:43 AM 60.8 °F - 60.8 °F 100% 30.15 in 9.0 mi East 6.9 mph - N/A   Overcast
7:58 AM 60.8 °F - 60.3 °F 98% 30.13 in 6.0 mi SE 8.1 mph - N/A   Overcast
8:13 AM 60.8 °F - 60.8 °F 100% 30.16 in 8.0 mi ESE 9.2 mph - N/A   Overcast
8:48 AM 62.6 °F - 60.8 °F 94% 30.16 in 10.0 mi South 4.6 mph - N/A   Overcast
8:58 AM 62.6 °F - 60.8 °F 94% 30.13 in 10.0 mi South 8.1 mph - 0.01 in   Overcast
9:03 AM 64.4 °F - 60.8 °F 88% 30.15 in 10.0 mi South 9.2 mph - N/A   Overcast
9:08 AM 64.4 °F - 60.8 °F 88% 30.15 in 10.0 mi South 9.2 mph - N/A   Mostly Cloudy
9:58 AM 68.5 °F - 59.9 °F 74% 30.11 in 10.0 mi SSW 9.2 mph - N/A   Clear
10:58 AM 72.7 °F - 60.1 °F 64% 30.13 in 10.0 mi South 9.2 mph - N/A   Clear
11:58 AM 74.7 °F - 59.7 °F 60% 30.13 in 10.0 mi South 10.4 mph 19.6 mph N/A   Mostly Cloudy
12:58 PM 75.9 °F - 59.9 °F 57% 30.12 in 10.0 mi SSE 15.0 mph - N/A   Overcast
1:57 PM 77.0 °F - 60.8 °F 57% 30.16 in 10.0 mi SE 15.0 mph - N/A   Mostly Cloudy
1:58 PM 77.4 °F - 60.1 °F 55% 30.11 in 10.0 mi SE 16.1 mph - N/A   Mostly Cloudy
2:58 PM 78.3 °F - 59.4 °F 52% 30.10 in 10.0 mi SSE 18.4 mph 23.0 mph N/A   Mostly Cloudy
3:25 PM 80.6 °F 81.5 °F 60.8 °F 51% 30.14 in 10.0 mi SE 16.1 mph 20.7 mph N/A   Mostly Cloudy
3:58 PM 79.9 °F - 60.3 °F 51% 30.06 in 10.0 mi SSE 13.8 mph 23.0 mph N/A   Scattered Clouds
4:06 PM 80.6 °F 81.5 °F 60.8 °F 51% 30.12 in 10.0 mi SE 15.0 mph - N/A   Partly Cloudy
4:58 PM 80.4 °F 81.4 °F 61.3 °F 52% 30.06 in 10.0 mi SSE 16.1 mph 21.9 mph N/A   Partly Cloudy
5:58 PM 79.0 °F - 61.7 °F 55% 30.05 in 10.0 mi SE 17.3 mph - N/A   Mostly Cloudy
6:58 PM 76.6 °F - 62.1 °F 61% 30.04 in 10.0 mi SE 17.3 mph - N/A   Mostly Cloudy
7:58 PM 72.7 °F - 62.2 °F 70% 30.04 in 10.0 mi ESE 16.1 mph - N/A   Partly Cloudy
8:58 PM 70.2 °F - 61.7 °F 74% 30.04 in 10.0 mi ESE 12.7 mph - N/A   Overcast
9:58 PM 69.8 °F - 63.0 °F 79% 30.01 in 10.0 mi South 18.4 mph 23.0 mph N/A   Scattered Clouds
10:58 PM 71.8 °F - 62.8 °F 73% 30.04 in 10.0 mi South 13.8 mph 20.7 mph N/A   Mostly Cloudy
11:58 PM 71.8 °F - 63.3 °F 75% 30.05 in 10.0 mi SE 1.2 mph - N/A   Overcast